カタログに戻る

COSMOS 1045

運用中ナビゲーションPO
NORAD 11084·PAYLOAD·🇷🇺 Russia

打ち上げ Oct 26, 1978 から Plesetsk Cosmodrome

Loading…

次のパス (今後24時間)

TLE

最新Source: Space-Track

元期: Sep 14, 2026, 05:00 UTC

1 11084U 78100A   26257.20892425  .00000037  00000-0  36141-3 0  9992
2 11084  82.5551 351.6900 0013043 146.8471 237.9960 11.96770790 91911

AllMySatでCOSMOS 1045をリアルタイム追跡

Download on the App Store